UNS100 MPTO-MMUN

Flight info

Callsign UNS100
Flight time 2h 0m
Altitude 36000
Route EGETA3A EGETA DCT SEKMA DCT SPP DCT TEKUG UM205 SIGMA SIGMA2G
Aircraft B720/M-SDFGHRWY/C

Departure

Time 2026-05-06 21:21
Airport Tocumen International Airport (MPTO)

Arrival

Time 2026-05-06 23:22
Airport Cancún International Airport (MMUN)
Time Latitude Longitude Altitude Speed Heading
2026-05-06 21:15 9.06815 -79.38388 59 ft 0 kts 207°
2026-05-06 21:16 9.06790 -79.38401 59 ft 11 kts 207°
2026-05-06 21:16 9.06774 -79.38409 60 ft 0 kts 209°
2026-05-06 21:16 9.06745 -79.38425 60 ft 10 kts 209°
2026-05-06 21:16 9.06655 -79.38480 59 ft 19 kts 214°
2026-05-06 21:17 9.06515 -79.38564 57 ft 24 kts 206°
2026-05-06 21:17 9.06374 -79.38630 52 ft 21 kts 194°
2026-05-06 21:17 9.06245 -79.38640 48 ft 17 kts 180°
2026-05-06 21:17 9.06111 -79.38681 46 ft 21 kts 208°
2026-05-06 21:18 9.05974 -79.38760 44 ft 22 kts 211°
2026-05-06 21:18 9.05830 -79.38844 40 ft 23 kts 210°
2026-05-06 21:18 9.05685 -79.38926 40 ft 23 kts 209°
2026-05-06 21:18 9.05542 -79.39008 38 ft 23 kts 210°
2026-05-06 21:19 9.05395 -79.39094 35 ft 24 kts 209°
2026-05-06 21:19 9.05245 -79.39177 34 ft 23 kts 210°
2026-05-06 21:19 9.05117 -79.39252 33 ft 18 kts 209°
2026-05-06 21:19 9.05002 -79.39315 33 ft 17 kts 211°
2026-05-06 21:20 9.04886 -79.39378 33 ft 17 kts 194°
2026-05-06 21:20 9.04802 -79.39318 33 ft 14 kts 119°
2026-05-06 21:20 9.04819 -79.39230 31 ft 11 kts 25°
2026-05-06 21:20 9.04826 -79.39226 31 ft 0 kts 27°
2026-05-06 21:21 9.04955 -79.39153 33 ft 63 kts 29°
2026-05-06 21:21 9.05585 -79.38792 40 ft 142 kts 28°
2026-05-06 21:21 9.06621 -79.38206 195 ft 187 kts 29°
2026-05-06 21:21 9.07694 -79.37595 1244 ft 168 kts 28°
2026-05-06 21:22 9.08677 -79.36982 2056 ft 173 kts 33°
2026-05-06 21:22 9.09558 -79.36249 3618 ft 167 kts 46°
2026-05-06 21:22 9.10111 -79.35472 4807 ft 172 kts 54°
2026-05-06 21:22 9.10940 -79.34232 5302 ft 230 kts 56°
2026-05-06 21:23 9.11729 -79.32801 6728 ft 239 kts 64°
2026-05-06 21:23 9.12527 -79.31078 6371 ft 278 kts 65°
2026-05-06 21:23 9.13323 -79.29263 5618 ft 290 kts 66°
2026-05-06 21:23 9.14110 -79.27381 5186 ft 285 kts 62°
2026-05-06 21:24 9.15416 -79.25974 4988 ft 270 kts 28°
2026-05-06 21:24 9.17164 -79.25511 4941 ft 258 kts 12°
2026-05-06 21:24 9.18769 -79.24734 4992 ft 258 kts 37°
2026-05-06 21:24 9.20280 -79.23702 5194 ft 263 kts 34°
2026-05-06 21:25 9.21814 -79.22688 5551 ft 265 kts 33°
2026-05-06 21:25 9.23375 -79.21677 6010 ft 268 kts 33°
2026-05-06 21:25 9.24955 -79.20669 6472 ft 271 kts 33°
2026-05-06 21:25 9.26567 -79.19652 6943 ft 273 kts 33°
2026-05-06 21:26 9.28211 -79.18626 7421 ft 275 kts 33°
2026-05-06 21:26 9.30085 -79.17466 7963 ft 280 kts 33°
2026-05-06 21:26 9.32013 -79.16280 8514 ft 282 kts 33°
2026-05-06 21:26 9.34014 -79.15056 9079 ft 286 kts 33°
2026-05-06 21:27 9.36035 -79.13824 9655 ft 289 kts 33°
2026-05-06 21:27 9.38042 -79.12605 10228 ft 291 kts 33°
2026-05-06 21:27 9.40090 -79.11363 10811 ft 293 kts 33°
2026-05-06 21:27 9.42157 -79.10113 11406 ft 296 kts 33°
2026-05-06 21:28 9.44261 -79.08841 12003 ft 299 kts 33°
2026-05-06 21:28 9.46492 -79.08044 12549 ft 309 kts
2026-05-06 21:28 9.48709 -79.08301 13094 ft 341 kts 343°
2026-05-06 21:28 9.50892 -79.09518 13798 ft 372 kts 322°
2026-05-06 21:29 9.52800 -79.11343 14594 ft 390 kts 320°
2026-05-06 21:29 9.54833 -79.13217 15478 ft 403 kts 320°
2026-05-06 21:29 9.56958 -79.15119 16415 ft 413 kts 321°
2026-05-06 21:29 9.59141 -79.17032 17376 ft 419 kts 322°
2026-05-06 21:30 9.61370 -79.18955 18351 ft 423 kts 322°
2026-05-06 21:30 9.63618 -79.20875 19327 ft 427 kts 322°
2026-05-06 21:30 9.65906 -79.22817 20319 ft 431 kts 323°
2026-05-06 21:30 9.68215 -79.24765 21318 ft 433 kts 323°
2026-05-06 21:31 9.70526 -79.26709 22312 ft 434 kts 323°
2026-05-06 21:31 9.72839 -79.28648 23340 ft 435 kts 323°
2026-05-06 21:31 9.75173 -79.30602 24384 ft 436 kts 323°
2026-05-06 21:31 9.77505 -79.32552 25425 ft 436 kts 323°
2026-05-06 21:32 9.79843 -79.34508 26463 ft 436 kts 322°
2026-05-06 21:32 9.84495 -79.38397 28505 ft 435 kts 321°
2026-05-06 21:32 9.86831 -79.40351 29521 ft 435 kts 321°
2026-05-06 21:33 9.89172 -79.42310 30288 ft 441 kts 321°
2026-05-06 21:33 9.91561 -79.44308 30876 ft 450 kts 321°
2026-05-06 21:33 9.94013 -79.46359 31459 ft 458 kts 321°
2026-05-06 21:33 9.96502 -79.48441 32066 ft 466 kts 321°
2026-05-06 21:34 9.99006 -79.50537 32702 ft 472 kts 321°
2026-05-06 21:34 10.01551 -79.52666 33423 ft 478 kts 321°
2026-05-06 21:34 10.04125 -79.54821 34084 ft 484 kts 321°
2026-05-06 21:34 10.06730 -79.57002 34585 ft 489 kts 321°
2026-05-06 21:35 10.09361 -79.59205 35081 ft 492 kts 321°
2026-05-06 21:35 10.12017 -79.61430 35582 ft 494 kts 321°
2026-05-06 21:35 10.14669 -79.63652 36085 ft 498 kts 320°
2026-05-06 21:35 10.17360 -79.65906 36593 ft 502 kts 320°
2026-05-06 21:36 10.20066 -79.68175 37108 ft 507 kts 320°
2026-05-06 21:36 10.22810 -79.70476 37449 ft 511 kts 320°
2026-05-06 21:36 10.28330 -79.75106 37051 ft 513 kts 320°
2026-05-06 21:37 10.31049 -79.77389 36353 ft 506 kts 320°
2026-05-06 21:37 10.33735 -79.79643 35932 ft 494 kts 320°
2026-05-06 21:37 10.39024 -79.84082 35889 ft 495 kts 320°
2026-05-06 21:38 10.44332 -79.88539 35878 ft 497 kts 320°
2026-05-06 21:38 10.49686 -79.93037 35874 ft 497 kts 320°
2026-05-06 21:39 10.55021 -79.97522 35878 ft 498 kts 320°
2026-05-06 21:39 10.60356 -80.02008 35876 ft 498 kts 320°
2026-05-06 21:40 10.65697 -80.06503 35879 ft 497 kts 321°
2026-05-06 21:40 10.70998 -80.10963 35874 ft 498 kts 320°
2026-05-06 21:41 10.76340 -80.15462 35876 ft 498 kts 320°
2026-05-06 21:41 10.81655 -80.19941 35878 ft 497 kts 320°
2026-05-06 21:42 10.87026 -80.24468 35878 ft 499 kts 320°
2026-05-06 21:42 10.92362 -80.28968 35876 ft 499 kts 321°
2026-05-06 21:43 10.97697 -80.33470 35874 ft 500 kts 321°
2026-05-06 21:43 11.03070 -80.38006 35879 ft 500 kts 321°
2026-05-06 21:44 11.08420 -80.42525 35881 ft 499 kts 321°
2026-05-06 21:44 11.13756 -80.47033 35885 ft 499 kts 321°
2026-05-06 21:45 11.19115 -80.51562 35890 ft 500 kts 321°
2026-05-06 21:45 11.24468 -80.56092 35891 ft 499 kts 321°
2026-05-06 21:46 11.29807 -80.60609 35893 ft 499 kts 321°
2026-05-06 21:46 11.35155 -80.65138 35895 ft 500 kts 321°
2026-05-06 21:47 11.40495 -80.69661 35897 ft 500 kts 321°
2026-05-06 21:47 11.45830 -80.74183 35897 ft 499 kts 321°
2026-05-06 21:48 11.51356 -80.78868 35897 ft 500 kts 321°
2026-05-06 21:48 11.57108 -80.83749 35897 ft 501 kts 321°
2026-05-06 21:49 11.62799 -80.88580 35896 ft 500 kts 321°
2026-05-06 21:49 11.68562 -80.93475 35897 ft 501 kts 321°
2026-05-06 21:50 11.74330 -80.98378 35895 ft 501 kts 321°
2026-05-06 21:50 11.80106 -81.03289 35894 ft 501 kts 321°
2026-05-06 21:51 11.85785 -81.08121 35895 ft 500 kts 321°
2026-05-06 21:51 11.91585 -81.13058 35905 ft 499 kts 321°
2026-05-06 21:52 11.97115 -81.17769 35908 ft 500 kts 321°
2026-05-06 21:52 12.02836 -81.22644 35904 ft 501 kts 321°
2026-05-06 21:53 12.08223 -81.27238 35899 ft 501 kts 321°
2026-05-06 21:53 12.13552 -81.31784 35900 ft 501 kts 321°
2026-05-06 21:54 12.19190 -81.36597 35900 ft 500 kts 321°
2026-05-06 21:54 12.24541 -81.41168 35900 ft 500 kts 321°
2026-05-06 21:55 12.30190 -81.45995 35899 ft 501 kts 321°
2026-05-06 21:55 12.35928 -81.50904 35900 ft 501 kts 321°
2026-05-06 21:56 12.41614 -81.55769 35903 ft 500 kts 321°
2026-05-06 21:56 12.47322 -81.60654 35904 ft 501 kts 321°
2026-05-06 21:57 12.52984 -81.65505 35908 ft 501 kts 321°
2026-05-06 21:57 12.58393 -81.69967 35911 ft 499 kts 328°
2026-05-06 21:58 12.64588 -81.73967 35917 ft 499 kts 329°
2026-05-06 21:58 12.70830 -81.77964 35920 ft 498 kts 329°
2026-05-06 21:59 12.77061 -81.81940 35918 ft 499 kts 329°
2026-05-06 21:59 12.83295 -81.85915 35914 ft 500 kts 329°
2026-05-06 22:00 12.89588 -81.89928 35917 ft 499 kts 329°
2026-05-06 22:00 12.95793 -81.93887 35916 ft 499 kts 329°
2026-05-06 22:01 13.01919 -81.97797 35918 ft 498 kts 329°
2026-05-06 22:01 13.08070 -82.01726 35918 ft 498 kts 329°
2026-05-06 22:02 13.14350 -82.05737 35919 ft 499 kts 329°
2026-05-06 22:02 13.20674 -82.09781 35920 ft 500 kts 329°
2026-05-06 22:03 13.26752 -82.13670 35919 ft 501 kts 329°
2026-05-06 22:03 13.33042 -82.17697 35918 ft 501 kts 329°
2026-05-06 22:04 13.39333 -82.21725 35911 ft 501 kts 329°
2026-05-06 22:04 13.45542 -82.25706 35909 ft 501 kts 329°
2026-05-06 22:05 13.51849 -82.29752 35911 ft 501 kts 329°
2026-05-06 22:05 13.58208 -82.33832 35908 ft 502 kts 329°
2026-05-06 22:06 13.64507 -82.37878 35913 ft 502 kts 329°
2026-05-06 22:06 13.70810 -82.41928 35915 ft 502 kts 329°
2026-05-06 22:07 13.77047 -82.45939 35921 ft 503 kts 329°
2026-05-06 22:07 13.83321 -82.49976 35919 ft 503 kts 329°
2026-05-06 22:08 13.89484 -82.53960 35921 ft 503 kts 328°
2026-05-06 22:08 13.95572 -82.57888 35918 ft 504 kts 329°
2026-05-06 22:09 14.01547 -82.61743 35918 ft 505 kts 329°
2026-05-06 22:09 14.07817 -82.65797 35918 ft 505 kts 329°
2026-05-06 22:10 14.14253 -82.69961 35917 ft 505 kts 329°
2026-05-06 22:10 14.20706 -82.74140 35921 ft 505 kts 329°
2026-05-06 22:11 14.27042 -82.78247 35924 ft 505 kts 329°
2026-05-06 22:11 14.33360 -82.82343 35929 ft 505 kts 329°
2026-05-06 22:12 14.39499 -82.86329 35928 ft 506 kts 329°
2026-05-06 22:12 14.45796 -82.90418 35935 ft 506 kts 329°
2026-05-06 22:13 14.52008 -82.94456 35939 ft 506 kts 329°
2026-05-06 22:13 14.58229 -82.98501 35941 ft 505 kts 329°
2026-05-06 22:14 14.64536 -83.02606 35936 ft 506 kts 329°
2026-05-06 22:14 14.70755 -83.06655 35933 ft 507 kts 329°
2026-05-06 22:15 14.76963 -83.10700 35933 ft 506 kts 329°
2026-05-06 22:15 14.83222 -83.14783 35934 ft 507 kts 329°
2026-05-06 22:16 14.89518 -83.18891 35933 ft 507 kts 329°
2026-05-06 22:16 14.95773 -83.22977 35929 ft 508 kts 329°
2026-05-06 22:17 15.01950 -83.27012 35928 ft 508 kts 329°
2026-05-06 22:17 15.08186 -83.31090 35927 ft 508 kts 329°
2026-05-06 22:18 15.14633 -83.35308 35928 ft 508 kts 329°
2026-05-06 22:18 15.21029 -83.39498 35925 ft 507 kts 329°
2026-05-06 22:19 15.27370 -83.43653 35930 ft 507 kts 329°
2026-05-06 22:19 15.33735 -83.47828 35929 ft 507 kts 329°
2026-05-06 22:20 15.39949 -83.51907 35931 ft 507 kts 329°
2026-05-06 22:20 15.46204 -83.56014 35933 ft 508 kts 329°
2026-05-06 22:21 15.52536 -83.60175 35932 ft 507 kts 329°
2026-05-06 22:21 15.58872 -83.64342 35936 ft 507 kts 329°
2026-05-06 22:22 15.65334 -83.68597 35933 ft 508 kts 329°
2026-05-06 22:22 15.71756 -83.72827 35935 ft 507 kts 329°
2026-05-06 22:23 15.78076 -83.76994 35936 ft 508 kts 329°
2026-05-06 22:23 15.84339 -83.81126 35934 ft 508 kts 329°
2026-05-06 22:24 15.90556 -83.85230 35935 ft 508 kts 329°
2026-05-06 22:24 15.96890 -83.89415 35938 ft 508 kts 329°
2026-05-06 22:25 16.03145 -83.93550 35938 ft 508 kts 329°
2026-05-06 22:25 16.09413 -83.97698 35940 ft 507 kts 329°
2026-05-06 22:26 16.15926 -84.02012 35940 ft 508 kts 329°
2026-05-06 22:26 16.22375 -84.06285 35943 ft 507 kts 329°
2026-05-06 22:27 16.28657 -84.10452 35942 ft 507 kts 329°
2026-05-06 22:27 16.35051 -84.14696 35954 ft 507 kts 329°
2026-05-06 22:28 16.41498 -84.18979 35950 ft 507 kts 329°
2026-05-06 22:28 16.47885 -84.23238 35950 ft 507 kts 329°
2026-05-06 22:29 16.54194 -84.27411 35945 ft 507 kts 329°
2026-05-06 22:29 16.60538 -84.31621 35943 ft 506 kts 329°
2026-05-06 22:30 16.66910 -84.35854 35945 ft 506 kts 329°
2026-05-06 22:30 16.73211 -84.40045 35941 ft 506 kts 329°
2026-05-06 22:31 16.79533 -84.44254 35938 ft 506 kts 329°
2026-05-06 22:31 16.85883 -84.48486 35939 ft 506 kts 328°
2026-05-06 22:32 16.92259 -84.52737 35939 ft 506 kts 328°
2026-05-06 22:32 16.98589 -84.56962 35940 ft 506 kts 328°
2026-05-06 22:33 17.04871 -84.61159 35939 ft 505 kts 328°
2026-05-06 22:33 17.11241 -84.65417 35941 ft 505 kts 328°
2026-05-06 22:34 17.17777 -84.69790 35945 ft 505 kts 328°
2026-05-06 22:34 17.24112 -84.74032 35948 ft 506 kts 328°
2026-05-06 22:35 17.30559 -84.78352 35939 ft 506 kts 328°
2026-05-06 22:35 17.36910 -84.82613 35940 ft 505 kts 328°
2026-05-06 22:36 17.43234 -84.86857 35940 ft 504 kts 328°
2026-05-06 22:36 17.49512 -84.91075 35940 ft 504 kts 328°
2026-05-06 22:37 17.55824 -84.95320 35947 ft 504 kts 328°
2026-05-06 22:37 17.62235 -84.99635 35949 ft 504 kts 328°
2026-05-06 22:38 17.68211 -85.03659 35953 ft 504 kts 328°
2026-05-06 22:38 17.74332 -85.07786 35953 ft 504 kts 328°
2026-05-06 22:39 17.80648 -85.12046 35951 ft 504 kts 328°
2026-05-06 22:39 17.86962 -85.16310 35943 ft 504 kts 328°
2026-05-06 22:40 17.93252 -85.20561 35939 ft 503 kts 328°
2026-05-06 22:40 17.99597 -85.24852 35941 ft 503 kts 328°
2026-05-06 22:41 18.09068 -85.31265 35940 ft 503 kts 328°
2026-05-06 22:42 18.15591 -85.35687 35946 ft 503 kts 328°
2026-05-06 22:42 18.22087 -85.40095 35950 ft 502 kts 328°
2026-05-06 22:43 18.28489 -85.44443 35959 ft 501 kts 328°
2026-05-06 22:43 18.34930 -85.48820 35954 ft 502 kts 328°
2026-05-06 22:44 18.41336 -85.53178 35954 ft 501 kts 328°
2026-05-06 22:44 18.47702 -85.57513 35955 ft 501 kts 328°
2026-05-06 22:45 18.54040 -85.61832 35954 ft 501 kts 328°
2026-05-06 22:45 18.60333 -85.66125 35953 ft 500 kts 327°
2026-05-06 22:46 18.66813 -85.70549 35954 ft 500 kts 327°
2026-05-06 22:46 18.73175 -85.74897 35955 ft 500 kts 327°
2026-05-06 22:47 18.79490 -85.79217 35955 ft 499 kts 327°
2026-05-06 22:47 18.85767 -85.83514 35956 ft 498 kts 327°
2026-05-06 22:48 18.92026 -85.87803 35953 ft 499 kts 327°
2026-05-06 22:48 18.98287 -85.92097 35945 ft 500 kts 327°
2026-05-06 22:49 19.04538 -85.96389 35951 ft 499 kts 327°
2026-05-06 22:49 19.10682 -86.00610 35960 ft 499 kts 327°
2026-05-06 22:50 19.16558 -86.04651 35555 ft 498 kts 327°
2026-05-06 22:50 19.19444 -86.06637 35027 ft 485 kts 327°
2026-05-06 22:50 19.22386 -86.08662 34469 ft 473 kts 327°
2026-05-06 22:50 19.25121 -86.10547 33929 ft 466 kts 327°
2026-05-06 22:51 19.27801 -86.12393 33407 ft 464 kts 327°
2026-05-06 22:51 19.30691 -86.14384 32854 ft 464 kts 327°
2026-05-06 22:51 19.33402 -86.16255 32391 ft 464 kts 327°
2026-05-06 22:51 19.36222 -86.18201 31927 ft 462 kts 327°
2026-05-06 22:52 19.39056 -86.20156 31460 ft 460 kts 327°
2026-05-06 22:52 19.41874 -86.22102 30995 ft 458 kts 328°
2026-05-06 22:52 19.44733 -86.24077 30525 ft 456 kts 327°
2026-05-06 22:52 19.47468 -86.25967 30074 ft 454 kts 328°
2026-05-06 22:53 19.50201 -86.27856 29622 ft 452 kts 328°
2026-05-06 22:53 19.53289 -86.29990 29112 ft 450 kts 328°
2026-05-06 22:53 19.56074 -86.31918 28651 ft 447 kts 328°
2026-05-06 22:53 19.58962 -86.33916 28167 ft 444 kts 328°
2026-05-06 22:54 19.62151 -86.35533 27634 ft 438 kts 345°
2026-05-06 22:54 19.65258 -86.36454 27174 ft 435 kts 346°
2026-05-06 22:54 19.68154 -86.37296 26746 ft 432 kts 346°
2026-05-06 22:54 19.71050 -86.38128 26318 ft 430 kts 346°
2026-05-06 22:55 19.73921 -86.38945 25892 ft 427 kts 347°
2026-05-06 22:55 19.76786 -86.39756 25466 ft 424 kts 347°
2026-05-06 22:55 19.79628 -86.40557 25044 ft 422 kts 347°
2026-05-06 22:55 19.82467 -86.41356 24621 ft 419 kts 347°
2026-05-06 22:56 19.85309 -86.42153 24197 ft 416 kts 347°
2026-05-06 22:56 19.88095 -86.42934 23780 ft 413 kts 347°
2026-05-06 22:56 19.91099 -86.43776 23333 ft 410 kts 347°
2026-05-06 22:56 19.94257 -86.44661 22865 ft 407 kts 348°
2026-05-06 22:57 19.97457 -86.45557 22393 ft 403 kts 348°
2026-05-06 22:57 20.00641 -86.46449 21935 ft 400 kts 348°
2026-05-06 22:57 20.03809 -86.47337 21486 ft 397 kts 348°
2026-05-06 22:57 20.06559 -86.48107 21097 ft 394 kts 348°
2026-05-06 22:58 20.09219 -86.48855 20716 ft 391 kts 348°
2026-05-06 22:58 20.11820 -86.49592 20343 ft 388 kts 348°
2026-05-06 22:58 20.14435 -86.50334 19968 ft 385 kts 348°
2026-05-06 22:58 20.17039 -86.51072 19593 ft 383 kts 348°
2026-05-06 22:59 20.19582 -86.51793 19226 ft 380 kts 348°
2026-05-06 22:59 20.22142 -86.52520 18855 ft 378 kts 348°
2026-05-06 22:59 20.24685 -86.53242 18484 ft 375 kts 348°
2026-05-06 22:59 20.27205 -86.53957 18116 ft 372 kts 349°
2026-05-06 23:00 20.29688 -86.54663 17751 ft 369 kts 349°
2026-05-06 23:00 20.32184 -86.55373 17383 ft 367 kts 349°
2026-05-06 23:00 20.34661 -86.56076 17014 ft 364 kts 349°
2026-05-06 23:00 20.37086 -86.56765 16650 ft 363 kts 348°
2026-05-06 23:01 20.39524 -86.57470 16284 ft 360 kts 348°
2026-05-06 23:01 20.41970 -86.58176 15900 ft 350 kts 348°
2026-05-06 23:01 20.44306 -86.58849 15512 ft 342 kts 348°
2026-05-06 23:01 20.46581 -86.59507 15115 ft 335 kts 348°
2026-05-06 23:02 20.48819 -86.60153 14709 ft 329 kts 348°
2026-05-06 23:02 20.51025 -86.60790 14289 ft 323 kts 348°
2026-05-06 23:02 20.53185 -86.61414 13864 ft 319 kts 348°
2026-05-06 23:02 20.55317 -86.62031 13438 ft 315 kts 348°
2026-05-06 23:03 20.57410 -86.62637 13020 ft 312 kts 348°
2026-05-06 23:03 20.59532 -86.63251 12586 ft 308 kts 348°
2026-05-06 23:03 20.61616 -86.63854 12147 ft 306 kts 348°
2026-05-06 23:03 20.63664 -86.64447 11732 ft 303 kts 348°
2026-05-06 23:04 20.65715 -86.65041 11313 ft 302 kts 347°
2026-05-06 23:04 20.67736 -86.65627 10891 ft 301 kts 348°
2026-05-06 23:04 20.69767 -86.66215 10456 ft 300 kts 348°
2026-05-06 23:04 20.71763 -86.66794 10036 ft 299 kts 348°
2026-05-06 23:05 20.73788 -86.67381 9619 ft 298 kts 348°
2026-05-06 23:05 20.75778 -86.67958 9208 ft 297 kts 348°
2026-05-06 23:05 20.77789 -86.68540 8787 ft 296 kts 348°
2026-05-06 23:05 20.79767 -86.69114 8377 ft 295 kts 348°
2026-05-06 23:06 20.81679 -86.69937 7939 ft 299 kts 325°
2026-05-06 23:06 20.83046 -86.71632 7500 ft 301 kts 306°
2026-05-06 23:06 20.84254 -86.73473 7087 ft 299 kts 306°
2026-05-06 23:06 20.85463 -86.75337 6775 ft 294 kts 305°
2026-05-06 23:07 20.86799 -86.77412 6447 ft 294 kts 305°
2026-05-06 23:07 20.88046 -86.79357 6141 ft 294 kts 304°
2026-05-06 23:07 20.89203 -86.81171 5858 ft 294 kts 304°
2026-05-06 23:07 20.90343 -86.82965 5577 ft 293 kts 304°
2026-05-06 23:08 20.91483 -86.84761 5305 ft 291 kts 304°
2026-05-06 23:08 20.92626 -86.86566 5021 ft 291 kts 304°
2026-05-06 23:08 20.93756 -86.88352 4741 ft 290 kts 304°
2026-05-06 23:08 20.94889 -86.90147 4468 ft 290 kts 304°
2026-05-06 23:09 20.96019 -86.91938 4187 ft 289 kts 304°
2026-05-06 23:09 20.97146 -86.93726 3918 ft 288 kts 304°
2026-05-06 23:09 20.98257 -86.95490 3660 ft 287 kts 304°
2026-05-06 23:09 20.99379 -86.97272 3392 ft 286 kts 304°
2026-05-06 23:10 21.00485 -86.99040 3124 ft 286 kts 303°
2026-05-06 23:10 21.01596 -87.00811 2860 ft 284 kts 303°
2026-05-06 23:10 21.02700 -87.02567 2594 ft 284 kts 303°
2026-05-06 23:10 21.03812 -87.04326 2324 ft 283 kts 303°
2026-05-06 23:11 21.04901 -87.06056 2068 ft 282 kts 303°
2026-05-06 23:11 21.05999 -87.07802 1884 ft 277 kts 303°
2026-05-06 23:11 21.07043 -87.09454 1945 ft 261 kts 303°
2026-05-06 23:11 21.08041 -87.11029 1941 ft 245 kts 303°
2026-05-06 23:12 21.08995 -87.12530 1947 ft 236 kts 303°
2026-05-06 23:12 21.09916 -87.13972 2010 ft 235 kts 303°
2026-05-06 23:12 21.10849 -87.15426 1959 ft 239 kts 303°
2026-05-06 23:12 21.11789 -87.16896 1962 ft 240 kts 304°
2026-05-06 23:13 21.12740 -87.18375 1957 ft 240 kts 303°
2026-05-06 23:13 21.13675 -87.19829 1955 ft 240 kts 304°
2026-05-06 23:13 21.14743 -87.21211 1932 ft 241 kts 327°
2026-05-06 23:13 21.16307 -87.21687 1966 ft 233 kts
2026-05-06 23:14 21.17777 -87.21075 1982 ft 223 kts 35°
2026-05-06 23:14 21.19148 -87.20248 1952 ft 223 kts 35°
2026-05-06 23:14 21.20243 -87.19173 1941 ft 211 kts 69°
2026-05-06 23:14 21.20673 -87.17681 1978 ft 209 kts 78°
2026-05-06 23:15 21.21048 -87.16192 1942 ft 208 kts 86°
2026-05-06 23:15 21.20706 -87.14754 1960 ft 200 kts 126°
2026-05-06 23:15 21.19887 -87.13541 1963 ft 202 kts 125°
2026-05-06 23:15 21.19117 -87.12295 1951 ft 201 kts 124°
2026-05-06 23:16 21.18331 -87.11047 1952 ft 201 kts 124°
2026-05-06 23:16 21.17555 -87.09808 1953 ft 200 kts 124°
2026-05-06 23:16 21.16773 -87.08559 1956 ft 200 kts 124°
2026-05-06 23:16 21.15997 -87.07325 1962 ft 200 kts 124°
2026-05-06 23:17 21.15228 -87.06097 1953 ft 188 kts 124°
2026-05-06 23:17 21.14549 -87.05015 1927 ft 165 kts 125°
2026-05-06 23:17 21.13913 -87.04001 1998 ft 164 kts 124°
2026-05-06 23:17 21.13267 -87.02972 1976 ft 168 kts 124°
2026-05-06 23:18 21.12605 -87.01918 1964 ft 168 kts 124°
2026-05-06 23:18 21.11951 -87.00875 1967 ft 168 kts 125°
2026-05-06 23:18 21.11297 -86.99834 1971 ft 168 kts 124°
2026-05-06 23:18 21.10634 -86.98779 1973 ft 169 kts 124°
2026-05-06 23:19 21.09974 -86.97729 1844 ft 174 kts 124°
2026-05-06 23:19 21.09300 -86.96656 1627 ft 170 kts 124°
2026-05-06 23:19 21.08653 -86.95628 1416 ft 164 kts 124°
2026-05-06 23:19 21.08007 -86.94601 1197 ft 151 kts 125°
2026-05-06 23:20 21.07437 -86.93694 998 ft 142 kts 126°
2026-05-06 23:20 21.06902 -86.92846 827 ft 134 kts 125°
2026-05-06 23:20 21.06381 -86.92016 674 ft 137 kts 126°
2026-05-06 23:20 21.05812 -86.91114 504 ft 153 kts 126°
2026-05-06 23:21 21.05213 -86.90161 291 ft 150 kts 126°
2026-05-06 23:21 21.04642 -86.89269 95 ft 140 kts 127°
2026-05-06 23:21 21.04124 -86.88444 32 ft 123 kts 126°
2026-05-06 23:21 21.03714 -86.87796 25 ft 85 kts 124°
2026-05-06 23:22 21.03462 -86.87389 29 ft 37 kts 123°
2026-05-06 23:22 21.03385 -86.87241 30 ft 9 kts 80°
2026-05-06 23:22 21.03430 -86.87193 31 ft 10 kts 33°
2026-05-06 23:22 21.03509 -86.87161 31 ft 11 kts 330°
2026-05-06 23:23 21.03564 -86.87241 30 ft 13 kts 302°
2026-05-06 23:23 21.03624 -86.87334 28 ft 15 kts 304°
2026-05-06 23:23 21.03691 -86.87441 26 ft 18 kts 303°
2026-05-06 23:23 21.03763 -86.87559 25 ft 19 kts 304°
2026-05-06 23:24 21.03839 -86.87682 25 ft 19 kts 302°
2026-05-06 23:24 21.03917 -86.87806 25 ft 16 kts 305°
2026-05-06 23:24 21.04008 -86.87830 25 ft 14 kts 31°
2026-05-06 23:24 21.04092 -86.87772 27 ft 13 kts 32°
2026-05-06 23:25 21.04143 -86.87709 28 ft 10 kts 78°
2026-05-06 23:25 21.04123 -86.87656 28 ft 6 kts 161°
2026-05-06 23:25 21.04079 -86.87648 27 ft 4 kts 170°
2026-05-06 23:25 21.04072 -86.87646 27 ft 0 kts 168°